Regional Weather Roundup
Issued by NWS

Home | Current Version | Previous Version | Graphics & Text | Print | Product List | Glossary On
Versions: 1 2 3 4 5 6 7 8 9 10 11 12 13 14 15 16 17 18 19 20 21 22 23 24 25 26 27 28 29 30 31 32 33 34 35 36 37 38 39 40 41 42 43 44 45 46 47 48 49 50
000
ASUS43 KLMK 261902
RWRKY
KENTUCKY REGIONAL WEATHER ROUNDUP
NATIONAL WEATHER SERVICE LOUISVILLE KY
300 PM EDT WED APR 26 2017

NOTE "FAIR" INDICATES FEW OR NO CLOUDS BELOW 12,000 FEET
WITH NO SIGNIFICANT WEATHER AND/OR OBSTRUCTIONS TO VISIBILITY.

KYZ001>023-026-027-061>063-070>075-262000-
WESTERN AND SOUTH CENTRAL KENTUCKY

CITY           SKY/WX    TMP DP  RH WIND       PRES   REMARKS
PADUCAH        PTSUNNY   80  62  54 S16G24    29.57F
HENDERSON      CLOUDY    83  64  52 S21G26    29.57F
OWENSBORO      PTSUNNY   81  65  58 S21       29.59F
HOPKINSVILLE   NOT AVBL
BOWLING GREEN  SUNNY     82  57  42 S14G25    29.67F
GLASGOW        NOT AVBL
$$

KYZ024-025-028>034-038-045-046-053-262000-
NORTH CENTRAL KENTUCKY

CITY           SKY/WX    TMP DP  RH WIND       PRES   REMARKS
LOUISVILLE/SDF MOSUNNY   83  61  47 S16G24    29.62F
LOUISVILLE/LOU SUNNY     81  62  52 S13G23    29.63F
FORT KNOX      SUNNY     81  62  52 S15G22    29.63R
$$

KYZ035>037-039>044-047>052-055>060-089>105-262000-
NORTHEAST KENTUCKY

CITY           SKY/WX    TMP DP  RH WIND       PRES   REMARKS
LEXINGTON      SUNNY     81  56  42 S15G23    29.69F
COVINGTON      MOSUNNY   79  62  56 S18G25    29.63F
FRANKFORT      SUNNY     81  58  45 S16G25    29.65F
$$

KYZ054-064>069-076>088-106>120-262000-
SOUTHEAST KENTUCKY

CITY           SKY/WX    TMP DP  RH WIND       PRES   REMARKS
JACKSON        SUNNY     80  54  40 VRB5      29.73F
LONDON         SUNNY     79  53  40 S10       29.72F
SOMERSET       SUNNY     79  52  38 S9        29.71F
MIDDLESBORO    SUNNY     80  57  46 SW9       29.76F
MONTICELLO     CLEAR     82  57  42 VRB6G20   29.71F
$$





USA.gov is the U.S. government's official web portal to all federal, state and local government web resources and services.